Waseca, MN

11:39 PM CST on January 18, 2017 (GMT -0600)
Waseca Municipal

Weather History for KACQ - December, 2011

Change the Weather History Date:

Thursday, December 15, 2011

  Actual Average Record
Temperature  
Mean Temperature 28 °F -  
Max Temperature 35 °F 26 °F 53 °F (1923)
Min Temperature 21 °F 10 °F -24 °F (1926)
Degree Days  
Heating Degree Days 37    
Moisture  
Dew Point 23 °F    
Average Humidity 76    
Maximum Humidity 93    
Minimum Humidity 64    
Precipitation  
Precipitation 0.00 in - - ()
Sea Level Pressure  
Sea Level Pressure 30.03 in    
Wind  
Wind Speed 21 mph (WNW)    
Max Wind Speed 33 mph    
Max Gust Speed 40 mph    
Visibility 9 miles    
Events      
Averages and records for this station are not official NWS values.
T = Trace of Precipitation, MM = Missing Value Source: NWS Daily Summary

Daily Weather History Graph

Daily Weather History Graph

Search for Another Location

Airport or City:

Trip Planner

Search our weather history database for the weather conditions in past years. The results will help you decide how hot, cold, wet, or windy it might be!

Date:

Astronomy

Dec. 15, 2011 Rise Set
Actual Time 7:42 AM CST 4:36 PM CST
Civil Twilight 7:08 AM CST 5:09 PM CST
Nautical Twilight 6:32 AM CST 5:46 PM CST
Astronomical Twilight 5:57 AM CST 6:21 PM CST
Moon 10:13 PM CST (12/15) 10:50 AM CST (12/15)
Length of Visible Light 10h 00m
Length of Day
8h 54m
Waning Gibbous, 74% of the Moon is Illuminated
Dec 15
Waning Gibbous
Dec 17
Last Quarter
Dec 24
New
Jan 1
First Quarter
Jan 9
Full

Hourly Weather History & Observations

Time (CST) Temp. Windchill Dew Point Humidity Pressure Visibility Wind Dir Wind Speed Gust Speed Precip Events Conditions
12:17 AM 35.6 °F 25.2 °F 33.8 °F 93% 29.70 in 7.0 mi WNW 18.4 mph 23.0 mph N/A   Overcast
12:36 AM 35.6 °F 24.8 °F 33.8 °F 93% 29.70 in 10.0 mi WNW 19.6 mph 24.2 mph N/A   Overcast
12:56 AM 35.6 °F 25.5 °F 33.8 °F 93% 29.70 in 10.0 mi West 17.3 mph 21.9 mph N/A   Overcast
1:16 AM 35.6 °F 24.8 °F 33.8 °F 93% 29.71 in 7.0 mi WNW 19.6 mph 24.2 mph N/A   Light Drizzle
1:36 AM 35.6 °F 24.8 °F 33.8 °F 93% 29.73 in 5.0 mi WNW 19.6 mph 28.8 mph N/A   Overcast
1:56 AM 33.8 °F 23.2 °F 32.0 °F 93% 29.73 in 5.0 mi WNW 17.3 mph 28.8 mph N/A   Overcast
2:17 AM 33.8 °F 22.8 °F 32.0 °F 93% 29.74 in 7.0 mi WNW 18.4 mph 26.5 mph N/A   Overcast
2:56 AM 33.8 °F 22.5 °F 30.2 °F 87% 29.76 in 10.0 mi WNW 19.6 mph 24.2 mph N/A   Overcast
3:17 AM 32.0 °F 18.6 °F 30.2 °F 93% 29.77 in 10.0 mi West 25.3 mph 28.8 mph N/A   Overcast
3:36 AM 32.0 °F 18.6 °F 30.2 °F 93% 29.78 in 10.0 mi WNW 25.3 mph 33.4 mph N/A   Overcast
3:56 AM 32.0 °F 18.9 °F 30.2 °F 93% 29.78 in 10.0 mi WNW 24.2 mph 29.9 mph N/A   Overcast
4:17 AM 32.0 °F 18.9 °F 28.4 °F 87% 29.79 in 4.0 mi WNW 24.2 mph 36.8 mph N/A   Overcast
4:37 AM 32.0 °F 19.2 °F 28.4 °F 87% 29.80 in 4.0 mi WNW 23.0 mph 32.2 mph N/A   Overcast
4:56 AM 30.2 °F 16.2 °F 26.6 °F 86% 29.81 in 5.0 mi WNW 25.3 mph 33.4 mph N/A   Overcast
5:16 AM 30.2 °F 14.7 °F 26.6 °F 86% 29.83 in 7.0 mi WNW 32.2 mph 40.3 mph N/A   Overcast
5:36 AM 30.2 °F 14.5 °F 24.8 °F 80% 29.85 in 7.0 mi WNW 33.4 mph 38.0 mph N/A   Overcast
6:16 AM 30.2 °F 16.8 °F 23.0 °F 75% 29.86 in 10.0 mi WNW 23.0 mph 32.2 mph N/A   Overcast
6:36 AM 30.2 °F 16.2 °F 23.0 °F 75% 29.88 in 10.0 mi WNW 25.3 mph 32.2 mph N/A   Overcast
6:57 AM 30.2 °F 17.8 °F 23.0 °F 75% 29.88 in 10.0 mi WNW 19.6 mph 27.6 mph N/A   Overcast
7:17 AM 30.2 °F 17.1 °F 23.0 °F 75% 29.90 in 10.0 mi WNW 21.9 mph 27.6 mph N/A   Overcast
7:36 AM 32.0 °F 20.8 °F 26.6 °F 80% 29.90 in 10.0 mi WNW 17.3 mph 23.0 mph N/A   Overcast
7:57 AM 32.0 °F 20.1 °F 26.6 °F 80% 29.91 in 10.0 mi West 19.6 mph 26.5 mph N/A   Overcast
8:16 AM 32.0 °F 20.5 °F 26.6 °F 80% 29.92 in 10.0 mi West 18.4 mph 25.3 mph N/A   Overcast
8:37 AM 32.0 °F 20.8 °F 26.6 °F 80% 29.93 in 10.0 mi West 17.3 mph 25.3 mph N/A   Overcast
9:37 AM 32.0 °F 19.5 °F 24.8 °F 75% 29.96 in 10.0 mi WNW 21.9 mph 29.9 mph N/A   Overcast
9:56 AM 32.0 °F 19.2 °F 23.0 °F 69% 29.97 in 10.0 mi WNW 23.0 mph 33.4 mph N/A   Overcast
10:16 AM 32.0 °F 19.5 °F 23.0 °F 69% 29.98 in 10.0 mi WNW 21.9 mph 32.2 mph N/A   Overcast
10:37 AM 32.0 °F 18.6 °F 23.0 °F 69% 29.99 in 10.0 mi WNW 25.3 mph 34.5 mph N/A   Overcast
10:57 AM 32.0 °F 19.5 °F 23.0 °F 69% 30.00 in 10.0 mi WNW 21.9 mph 35.7 mph N/A   Mostly Cloudy
11:16 AM 32.0 °F 17.9 °F 23.0 °F 69% 30.01 in 10.0 mi WNW 28.8 mph 35.7 mph N/A   Mostly Cloudy
11:37 AM 32.0 °F 18.1 °F 23.0 °F 69% 30.01 in 10.0 mi WNW 27.6 mph 35.7 mph N/A   Overcast
11:57 AM 32.0 °F 18.4 °F 23.0 °F 69% 30.02 in 10.0 mi WNW 26.5 mph 35.7 mph N/A   Overcast
12:16 PM 32.0 °F 18.6 °F 23.0 °F 69% 30.03 in 10.0 mi WNW 25.3 mph 34.5 mph N/A   Overcast
12:37 PM 32.0 °F 18.6 °F 23.0 °F 69% 30.04 in 10.0 mi WNW 25.3 mph 38.0 mph N/A   Overcast
12:56 PM 32.0 °F 18.1 °F 23.0 °F 69% 30.04 in 10.0 mi WNW 27.6 mph 39.1 mph N/A   Overcast
1:17 PM 32.0 °F 18.6 °F 21.2 °F 64% 30.05 in 10.0 mi WNW 25.3 mph 35.7 mph N/A   Overcast
1:36 PM 32.0 °F 18.4 °F 21.2 °F 64% 30.06 in 10.0 mi WNW 26.5 mph 32.2 mph N/A   Overcast
1:57 PM 32.0 °F 19.5 °F 23.0 °F 69% 30.07 in 10.0 mi WNW 21.9 mph 31.1 mph N/A   Overcast
2:17 PM 32.0 °F 18.4 °F 23.0 °F 69% 30.09 in 10.0 mi WNW 26.5 mph 33.4 mph N/A   Overcast
2:36 PM 32.0 °F 18.9 °F 21.2 °F 64% 30.09 in 10.0 mi WNW 24.2 mph 33.4 mph N/A   Overcast
2:56 PM 30.2 °F 16.5 °F 19.4 °F 64% 30.11 in 10.0 mi WNW 24.2 mph 35.7 mph N/A   Overcast
3:17 PM 30.2 °F 16.5 °F 19.4 °F 64% 30.13 in 10.0 mi WNW 24.2 mph 38.0 mph N/A   Overcast
3:37 PM 30.2 °F 14.9 °F 19.4 °F 64% 30.14 in 10.0 mi WNW 31.1 mph 39.1 mph N/A   Overcast
3:56 PM 30.2 °F 18.1 °F 19.4 °F 64% 30.16 in 10.0 mi WNW 18.4 mph 28.8 mph N/A   Overcast
4:17 PM 30.2 °F 16.8 °F 19.4 °F 64% 30.16 in 10.0 mi WNW 23.0 mph 29.9 mph N/A   Mostly Cloudy
4:36 PM 30.2 °F 17.1 °F 19.4 °F 64% 30.18 in 10.0 mi WNW 21.9 mph 28.8 mph N/A   Mostly Cloudy
4:57 PM 28.4 °F 15.1 °F 17.6 °F 64% 30.19 in 10.0 mi WNW 20.7 mph 32.2 mph N/A   Scattered Clouds
5:17 PM 28.4 °F 14.4 °F 17.6 °F 64% 30.20 in 10.0 mi WNW 23.0 mph 28.8 mph N/A   Scattered Clouds
5:37 PM 28.4 °F 14.4 °F 17.6 °F 64% 30.20 in 10.0 mi WNW 23.0 mph 29.9 mph N/A   Scattered Clouds
5:57 PM 28.4 °F 16.2 °F 19.4 °F 69% 30.22 in 10.0 mi WNW 17.3 mph 25.3 mph N/A   Clear
6:16 PM 26.6 °F 13.8 °F 17.6 °F 69% 30.23 in 10.0 mi WNW 17.3 mph 21.9 mph N/A   Clear
6:37 PM 26.6 °F 12.7 °F 17.6 °F 69% 30.24 in 10.0 mi WNW 20.7 mph 26.5 mph N/A   Clear
6:56 PM 26.6 °F 14.3 °F 17.6 °F 69% 30.24 in 10.0 mi WNW 16.1 mph 21.9 mph N/A   Clear
7:17 PM 26.6 °F 14.7 °F 17.6 °F 69% 30.25 in 10.0 mi WNW 15.0 mph - N/A   Clear
7:37 PM 26.6 °F 14.3 °F 17.6 °F 69% 30.25 in 10.0 mi NW 16.1 mph 23.0 mph N/A   Clear
7:57 PM 26.6 °F 15.7 °F 17.6 °F 69% 30.24 in 10.0 mi NW 12.7 mph - N/A   Clear
8:16 PM 24.8 °F 12.9 °F 17.6 °F 74% 30.25 in 10.0 mi NW 13.8 mph - N/A   Clear
8:37 PM 24.8 °F 13.4 °F 17.6 °F 74% 30.25 in 10.0 mi NW 12.7 mph - N/A   Clear
9:37 PM 23.0 °F 12.4 °F 17.6 °F 80% 30.29 in 10.0 mi WNW 10.4 mph - N/A   Clear
9:56 PM 23.0 °F 13.9 °F 17.6 °F 80% 30.31 in 10.0 mi WNW 8.1 mph - N/A   Clear
10:16 PM 23.0 °F 13.9 °F 17.6 °F 80% 30.33 in 10.0 mi West 8.1 mph - N/A   Clear
10:37 PM 23.0 °F 13.9 °F 17.6 °F 80% 30.33 in 10.0 mi WNW 8.1 mph - N/A   Clear
10:56 PM 23.0 °F 13.9 °F 17.6 °F 80% 30.34 in 10.0 mi West 8.1 mph - N/A   Clear
11:16 PM 21.2 °F 12.6 °F 15.8 °F 80% 30.35 in 10.0 mi WNW 6.9 mph - N/A   Clear
11:37 PM 21.2 °F 13.6 °F 14.0 °F 74% 30.35 in 10.0 mi NW 5.8 mph - N/A   Clear
11:56 PM 21.2 °F 12.6 °F 14.0 °F 74% 30.36 in 10.0 mi West 6.9 mph - N/A   Clear